Location: Banksville Park
(38.5557°N, 75.1182°W)
Time: 11:34:14
(UTC+00:00)

Cosmos 1975 Rocket - Pass Details

Date: 19 September 2020
Orbit: 603 x 634 km, 82.5° (Epoch: 21 October)

Event Time Altitude Azimuth Distance (km) Brightness Sun altitude
Rises 23:59:05 0° 354° (N) 2,871 6.7 -11.7°
Reaches altitude 10° 00:01:19 10° 357° (N) 1,960 5.8 -12.1°
Maximum altitude 00:05:39 73° 82° (E) 634 2.9 -13.0°
Drops below altitude 10° 00:09:56 10° 168° (SSE) 1,940 5.4 -13.8°
Sets 00:12:08 0° 170° (S) 2,839 6.2 -14.2°
